Location: Berlin
(42.3812°N, 71.6370°W)
Time: 20:42:53
(UTC+00:00)

Aureole 3 - Pass Details

Date: 15 November 2025
Orbit: 371 x 1042 km, 82.5° (Epoch: 11 December)

Event Time Altitude Azimuth Distance (km) Brightness Sun altitude
Rises 10:11:24 0° 203° (SSW) 3,638 7.4 -16.0°
Reaches altitude 10° 10:14:12 10° 210° (SSW) 2,616 6.6 -15.5°
Maximum altitude 10:19:52 44° 281° (W) 1,122 4.4 -14.5°
Drops below altitude 10° 10:24:42 10° 354° (N) 2,218 6.2 -13.6°
Sets 10:26:55 0° 1° (N) 3,034 7.0 -13.2°
